Location: Northam
(31.6525°S, 116.6655°E)
Time: 23:39:45
(UTC+08:00)

Envisat - Visible Passes

Search period start: 15 May 2021 00:00
Search period end: 25 May 2021 00:00
Orbit: 764 x 766 km, 98.1° (Epoch: 14 May)

Date Brightness Start Highest point End Pass type
(mag) Time Alt. Az. Time Alt. Az. Time Alt. Az.
15 May 3.3 04:46:43 10° NNE 04:51:45 67° ESE 04:55:26 19° S visible
15 May 5.4 18:40:40 10° SSW 18:44:31 22° WSW 18:48:20 10° WNW visible
16 May 4.8 04:10:52 10° NE 04:15:08 28° ESE 04:17:56 17° SSE visible
16 May 3.9 05:49:46 10° NNW 05:54:01 27° W 05:58:07 11° SW visible
16 May 4.0 18:02:59 10° S 18:07:57 51° WSW 18:12:52 10° NNW visible
17 May 5.9 03:36:59 10° E 03:38:43 12° ESE 03:40:27 10° SE visible
17 May 2.9 05:12:02 10° N 05:17:05 66° WNW 05:20:38 20° SSW visible
17 May 5.9 19:07:47 10° SW 19:09:35 12° WSW 19:11:22 10° W visible
18 May 3.7 04:35:26 10° NNE 04:40:21 51° ESE 04:43:10 24° S visible
18 May 4.6 06:16:55 10° NW 06:19:34 14° W 06:22:14 10° WSW visible
18 May 5.0 18:28:51 10° SSW 18:33:10 28° WSW 18:37:26 10° NW visible
19 May 5.2 03:59:58 10° ENE 04:03:47 22° ESE 04:05:42 18° SE visible
19 May 3.6 05:37:53 10° NNW 05:42:30 35° W 05:45:53 17° SW visible
19 May 3.5 17:51:26 10° S 17:56:32 67° WSW 18:01:35 10° NNW visible
20 May 2.9 05:00:32 10° NNE 05:05:38 86° WNW 05:08:27 28° SSW visible
20 May 5.7 18:55:20 10° SSW 18:58:16 16° WSW 19:01:12 10° WNW visible
21 May 4.2 04:24:15 10° NE 04:28:56 39° ESE 04:31:01 27° SSE visible
21 May 4.4 06:04:30 10° NW 06:08:01 19° W 06:11:11 11° SW visible
21 May 4.6 18:17:08 10° S 18:21:47 36° WSW 18:26:24 10° NW visible
22 May 5.5 03:49:16 10° ENE 03:52:27 17° ESE 03:53:35 16° SE visible
22 May 3.2 05:26:10 10° N 05:31:01 46° W 05:33:46 24° SW visible
22 May 3.1 17:39:57 10° SSE 17:45:07 87° WSW 17:50:12 10° NNW visible
23 May 3.1 04:49:08 10° NNE 04:54:12 73° ESE 04:56:21 35° S visible
23 May 5.5 18:43:17 10° SSW 18:46:56 20° WSW 18:50:34 10° WNW visible
24 May 4.7 04:13:10 10° NE 04:17:34 30° ESE 04:18:56 26° SE visible
24 May 4.0 05:52:24 10° NNW 05:56:29 24° W 05:59:07 17° SW visible
24 May 4.1 18:05:29 10° S 18:10:24 46° WSW 18:15:15 10° NW visible
